Time,TemperatureF,DewpointF,PressureIn,WindDirection,WindDirectionDegrees,WindSpeedMPH,WindSpeedGustMPH,Humidity,HourlyPrecipIn,Conditions,Clouds,dailyrainin,SoftwareType,DateUTC
2013-06-24 00:01:00,78.3,70.5,29.86,SE,137,5.0,7.0,77,0.00,,---,0.00,VWS V14.00,2013-06-24 05:01:00,
2013-06-24 00:06:00,78.2,70.4,29.86,SE,138,5.0,9.0,77,0.00,,---,0.00,VWS V14.00,2013-06-24 05:06:00,
2013-06-24 00:11:00,78.1,70.3,29.86,SE,137,6.0,10.0,77,0.00,,---,0.00,VWS V14.00,2013-06-24 05:11:00,
2013-06-24 00:16:00,78.0,70.2,29.85,SE,140,5.0,9.0,77,0.00,,---,0.00,VWS V14.00,2013-06-24 05:16:00,
2013-06-24 00:21:00,78.0,70.6,29.86,SSE,147,2.0,10.0,78,0.00,,---,0.00,VWS V14.00,2013-06-24 05:21:00,
2013-06-24 00:26:00,77.9,70.5,29.86,SE,146,5.0,9.0,78,0.00,,---,0.00,VWS V14.00,2013-06-24 05:26:00,
2013-06-24 00:31:00,77.8,70.4,29.86,SE,143,7.0,10.0,78,0.00,,---,0.00,VWS V14.00,2013-06-24 05:31:00,
2013-06-24 00:36:00,77.8,70.4,29.86,SSE,147,5.0,12.0,78,0.00,,---,0.00,VWS V14.00,2013-06-24 05:36:00,
2013-06-24 00:41:00,77.7,70.3,29.86,SE,146,6.0,8.0,78,0.00,,---,0.00,VWS V14.00,2013-06-24 05:41:00,
2013-06-24 00:46:00,77.6,70.2,29.86,SSE,150,8.0,11.0,78,0.00,,---,0.00,VWS V14.00,2013-06-24 05:46:00,
2013-06-24 00:51:00,77.6,70.6,29.86,SSE,149,5.0,11.0,79,0.00,,---,0.00,VWS V14.00,2013-06-24 05:51:00,
2013-06-24 00:56:00,77.6,70.6,29.86,SSE,152,3.0,11.0,79,0.00,,---,0.00,VWS V14.00,2013-06-24 05:56:00,
2013-06-24 01:01:00,77.6,70.6,29.86,SSE,152,6.0,11.0,79,0.00,,---,0.00,VWS V14.00,2013-06-24 06:01:00,
2013-06-24 01:06:00,77.6,70.6,29.86,SE,145,5.0,9.0,79,0.00,,---,0.00,VWS V14.00,2013-06-24 06:06:00,
2013-06-24 01:11:00,77.5,70.5,29.86,SSE,148,6.0,9.0,79,0.00,,---,0.00,VWS V14.00,2013-06-24 06:11:00,
2013-06-24 01:16:00,77.5,70.5,29.86,SE,140,6.0,11.0,79,0.00,,---,0.00,VWS V14.00,2013-06-24 06:16:00,
2013-06-24 01:21:00,77.5,70.5,29.86,SE,140,9.0,11.0,79,0.00,,---,0.00,VWS V14.00,2013-06-24 06:21:00,
2013-06-24 01:26:00,77.5,70.5,29.86,SE,142,8.0,12.0,79,0.00,,---,0.00,VWS V14.00,2013-06-24 06:26:00,
2013-06-24 01:32:00,77.5,70.5,29.86,SE,142,6.0,12.0,79,0.00,,---,0.00,VWS V14.00,2013-06-24 06:32:00,
2013-06-24 01:37:00,77.4,70.4,29.86,SSE,148,4.0,12.0,79,0.00,,---,0.00,VWS V14.00,2013-06-24 06:37:00,
2013-06-24 01:42:00,77.4,70.4,29.86,SE,145,5.0,11.0,79,0.00,,---,0.00,VWS V14.00,2013-06-24 06:42:00,
2013-06-24 01:47:00,77.3,70.3,29.86,SSE,157,5.0,10.0,79,0.00,,---,0.00,VWS V14.00,2013-06-24 06:47:00,
2013-06-24 01:52:00,77.2,70.2,29.86,SSE,155,3.0,9.0,79,0.00,,---,0.00,VWS V14.00,2013-06-24 06:52:00,
2013-06-24 01:57:00,77.2,70.2,29.86,SSE,153,6.0,10.0,79,0.00,,---,0.00,VWS V14.00,2013-06-24 06:57:00,
2013-06-24 02:02:00,77.1,70.5,29.87,SSE,152,2.0,9.0,80,0.00,,---,0.00,VWS V14.00,2013-06-24 07:02:00,
2013-06-24 02:07:00,77.1,70.1,29.87,SSE,152,2.0,6.0,79,0.00,,---,0.00,VWS V14.00,2013-06-24 07:07:00,
2013-06-24 02:12:00,77.0,70.4,29.87,SSE,152,4.0,6.0,80,0.00,,---,0.00,VWS V14.00,2013-06-24 07:12:00,
2013-06-24 02:17:00,77.0,70.4,29.87,SSE,152,3.0,5.0,80,0.00,,---,0.00,VWS V14.00,2013-06-24 07:17:00,
2013-06-24 02:22:00,76.9,70.3,29.87,SSE,152,0.0,5.0,80,0.00,,---,0.00,VWS V14.00,2013-06-24 07:22:00,
2013-06-24 02:27:00,76.8,70.2,29.87,SSE,152,2.0,6.0,80,0.00,,---,0.00,VWS V14.00,2013-06-24 07:27:00,
2013-06-24 02:32:00,76.6,70.0,29.87,SSE,152,0.0,0.0,80,0.00,,---,0.00,VWS V14.00,2013-06-24 07:32:00,
2013-06-24 02:37:00,76.6,70.0,29.87,SSE,152,2.0,3.0,80,0.00,,---,0.00,VWS V14.00,2013-06-24 07:37:00,
2013-06-24 02:42:00,76.4,70.1,29.87,SSE,152,3.0,4.0,81,0.00,,---,0.00,VWS V14.00,2013-06-24 07:42:00,
2013-06-24 02:47:00,76.3,70.1,29.87,SSE,152,3.0,3.0,81,0.00,,---,0.00,VWS V14.00,2013-06-24 07:47:00,
2013-06-24 02:52:00,76.2,69.9,29.87,SSE,152,3.0,5.0,81,0.00,,---,0.00,VWS V14.00,2013-06-24 07:52:00,
2013-06-24 02:58:00,76.1,69.8,29.87,SSE,152,3.0,4.0,81,0.00,,---,0.00,VWS V14.00,2013-06-24 07:58:00,
2013-06-24 03:02:00,75.9,69.7,29.87,SSE,152,4.0,5.0,81,0.00,,---,0.00,VWS V14.00,2013-06-24 08:02:00,
2013-06-24 03:07:00,75.8,69.9,29.87,SSE,148,2.0,6.0,82,0.00,,---,0.00,VWS V14.00,2013-06-24 08:07:00,
2013-06-24 03:13:00,75.8,69.9,29.88,SSE,148,2.0,4.0,82,0.00,,---,0.00,VWS V14.00,2013-06-24 08:13:00,
2013-06-24 03:18:00,75.7,69.8,29.88,SSE,147,5.0,6.0,82,0.00,,---,0.00,VWS V14.00,2013-06-24 08:18:00,
2013-06-24 03:23:00,75.7,69.8,29.88,SSE,147,6.0,7.0,82,0.00,,---,0.00,VWS V14.00,2013-06-24 08:23:00,
2013-06-24 03:28:00,75.7,69.8,29.88,SE,146,4.0,5.0,82,0.00,,---,0.00,VWS V14.00,2013-06-24 08:28:00,
2013-06-24 03:33:00,75.7,69.8,29.88,SE,144,4.0,6.0,82,0.00,,---,0.00,VWS V14.00,2013-06-24 08:33:00,
2013-06-24 03:38:00,75.7,69.8,29.88,SE,143,6.0,6.0,82,0.00,,---,0.00,VWS V14.00,2013-06-24 08:38:00,
2013-06-24 03:43:00,75.7,69.8,29.88,SE,143,5.0,5.0,82,0.00,,---,0.00,VWS V14.00,2013-06-24 08:43:00,
2013-06-24 03:48:00,75.7,69.8,29.89,SE,142,4.0,5.0,82,0.00,,---,0.00,VWS V14.00,2013-06-24 08:48:00,
2013-06-24 03:53:00,75.7,69.8,29.89,SE,142,4.0,6.0,82,0.00,,---,0.00,VWS V14.00,2013-06-24 08:53:00,
2013-06-24 03:58:00,75.7,69.8,29.89,SE,142,3.0,5.0,82,0.00,,---,0.00,VWS V14.00,2013-06-24 08:58:00,
2013-06-24 04:03:00,75.7,69.8,29.89,SE,142,2.0,5.0,82,0.00,,---,0.00,VWS V14.00,2013-06-24 09:03:00,
2013-06-24 04:08:00,75.7,69.8,29.88,SE,141,5.0,6.0,82,0.00,,---,0.00,VWS V14.00,2013-06-24 09:08:00,
2013-06-24 04:13:00,75.7,69.8,29.88,SE,140,3.0,8.0,82,0.00,,---,0.00,VWS V14.00,2013-06-24 09:13:00,
2013-06-24 04:18:00,75.7,69.8,29.88,SE,140,5.0,7.0,82,0.00,,---,0.00,VWS V14.00,2013-06-24 09:18:00,
2013-06-24 04:23:00,75.6,69.7,29.89,SE,140,6.0,6.0,82,0.00,,---,0.00,VWS V14.00,2013-06-24 09:23:00,
2013-06-24 04:28:00,75.7,69.8,29.89,SE,139,3.0,6.0,82,0.00,,---,0.00,VWS V14.00,2013-06-24 09:28:00,
2013-06-24 04:33:00,75.6,69.7,29.89,SE,139,5.0,5.0,82,0.00,,---,0.00,VWS V14.00,2013-06-24 09:33:00,
2013-06-24 04:38:00,75.6,69.7,29.89,SE,138,6.0,7.0,82,0.00,,---,0.00,VWS V14.00,2013-06-24 09:38:00,
2013-06-24 04:43:00,75.7,69.8,29.89,SE,137,5.0,7.0,82,0.00,,---,0.00,VWS V14.00,2013-06-24 09:43:00,
2013-06-24 04:48:00,75.7,69.8,29.89,SE,136,6.0,9.0,82,0.00,,---,0.00,VWS V14.00,2013-06-24 09:48:00,
2013-06-24 04:53:00,75.7,69.8,29.88,SE,136,10.0,10.0,82,0.00,,---,0.00,VWS V14.00,2013-06-24 09:53:00,
2013-06-24 04:58:00,75.7,69.8,29.88,SE,135,8.0,9.0,82,0.00,,---,0.00,VWS V14.00,2013-06-24 09:58:00,
2013-06-24 05:03:00,75.7,69.8,29.88,SE,133,10.0,10.0,82,0.00,,---,0.00,VWS V14.00,2013-06-24 10:03:00,
2013-06-24 05:09:00,75.7,69.8,29.88,SE,133,6.0,7.0,82,0.00,,---,0.00,VWS V14.00,2013-06-24 10:09:00,
2013-06-24 05:14:00,75.7,69.8,29.88,SE,134,8.0,10.0,82,0.00,,---,0.00,VWS V14.00,2013-06-24 10:14:00,
2013-06-24 05:19:00,75.7,69.8,29.88,SE,135,5.0,9.0,82,0.00,,---,0.00,VWS V14.00,2013-06-24 10:19:00,
2013-06-24 05:24:00,75.7,69.8,29.89,SE,136,5.0,9.0,82,0.00,,---,0.00,VWS V14.00,2013-06-24 10:24:00,
2013-06-24 05:29:00,75.8,69.9,29.88,SE,141,10.0,11.0,82,0.00,,---,0.00,VWS V14.00,2013-06-24 10:29:00,
2013-06-24 05:34:00,75.8,69.9,29.89,SE,140,5.0,11.0,82,0.00,,---,0.00,VWS V14.00,2013-06-24 10:34:00,
2013-06-24 05:39:00,75.8,69.9,29.89,SE,137,11.0,11.0,82,0.00,,---,0.00,VWS V14.00,2013-06-24 10:39:00,
2013-06-24 05:44:00,75.8,69.9,29.89,SE,145,7.0,10.0,82,0.00,,---,0.00,VWS V14.00,2013-06-24 10:44:00,
2013-06-24 05:49:00,75.7,69.8,29.89,SE,138,10.0,10.0,82,0.00,,---,0.00,VWS V14.00,2013-06-24 10:49:00,
2013-06-24 05:54:00,75.7,69.8,29.89,SE,146,6.0,14.0,82,0.00,,---,0.00,VWS V14.00,2013-06-24 10:54:00,
2013-06-24 05:59:00,75.6,69.7,29.89,SE,141,4.0,10.0,82,0.00,,---,0.00,VWS V14.00,2013-06-24 10:59:00,
2013-06-24 06:04:00,75.6,70.1,29.90,SE,138,6.0,10.0,83,0.00,,---,0.00,VWS V14.00,2013-06-24 11:04:00,
2013-06-24 06:09:00,75.4,69.9,29.89,SE,139,5.0,6.0,83,0.00,,---,0.00,VWS V14.00,2013-06-24 11:09:00,
2013-06-24 06:15:00,75.3,69.8,29.90,SSE,156,4.0,12.0,83,0.00,,---,0.00,VWS V14.00,2013-06-24 11:15:00,
2013-06-24 06:20:00,75.2,69.7,29.90,SSE,156,2.0,7.0,83,0.00,,---,0.00,VWS V14.00,2013-06-24 11:20:00,
2013-06-24 06:25:00,75.1,69.6,29.90,SSE,158,7.0,10.0,83,0.00,,---,0.00,VWS V14.00,2013-06-24 11:25:00,
2013-06-24 06:30:00,75.0,69.8,29.90,SSE,153,6.0,8.0,84,0.00,,---,0.00,VWS V14.00,2013-06-24 11:30:00,
2013-06-24 06:35:00,75.0,69.8,29.90,SSE,154,5.0,7.0,84,0.00,,---,0.00,VWS V14.00,2013-06-24 11:35:00,
2013-06-24 06:40:00,74.9,69.7,29.90,SSE,157,4.0,10.0,84,0.00,,---,0.00,VWS V14.00,2013-06-24 11:40:00,
2013-06-24 06:45:00,75.0,69.8,29.90,SSE,159,5.0,10.0,84,0.00,,---,0.00,VWS V14.00,2013-06-24 11:45:00,
2013-06-24 06:50:00,75.0,69.8,29.90,SSE,155,6.0,10.0,84,0.00,,---,0.00,VWS V14.00,2013-06-24 11:50:00,
2013-06-24 06:55:00,75.1,69.9,29.90,SSE,157,6.0,10.0,84,0.00,,---,0.00,VWS V14.00,2013-06-24 11:55:00,
2013-06-24 07:00:00,75.2,70.0,29.90,SSE,158,7.0,9.0,84,0.00,,---,0.00,VWS V14.00,2013-06-24 12:00:00,
2013-06-24 07:06:00,75.3,70.1,29.91,SSE,162,6.0,12.0,84,0.00,,---,0.00,VWS V14.00,2013-06-24 12:06:00,
2013-06-24 07:11:00,75.4,70.2,29.90,SSE,159,6.0,9.0,84,0.00,,---,0.00,VWS V14.00,2013-06-24 12:11:00,
2013-06-24 07:16:00,75.5,70.3,29.91,SSE,161,7.0,11.0,84,0.00,,---,0.00,VWS V14.00,2013-06-24 12:16:00,
2013-06-24 07:21:00,75.6,70.4,29.91,SSE,162,5.0,9.0,84,0.00,,---,0.00,VWS V14.00,2013-06-24 12:21:00,
2013-06-24 07:26:00,75.8,70.6,29.91,South,171,3.0,13.0,84,0.00,,---,0.00,VWS V14.00,2013-06-24 12:26:00,
2013-06-24 07:31:00,76.0,70.5,29.91,SSE,166,5.0,9.0,83,0.00,,---,0.00,VWS V14.00,2013-06-24 12:31:00,
2013-06-24 07:36:00,76.2,70.7,29.91,SSE,164,4.0,9.0,83,0.00,,---,0.00,VWS V14.00,2013-06-24 12:36:00,
2013-06-24 07:41:00,76.4,70.9,29.91,SSE,163,6.0,11.0,83,0.00,,---,0.00,VWS V14.00,2013-06-24 12:41:00,
2013-06-24 07:46:00,76.7,70.8,29.91,SSE,164,6.0,11.0,82,0.00,,---,0.00,VWS V14.00,2013-06-24 12:46:00,
2013-06-24 07:51:00,77.0,71.1,29.91,SSE,161,5.0,11.0,82,0.00,,---,0.00,VWS V14.00,2013-06-24 12:51:00,
2013-06-24 07:56:00,77.3,71.4,29.91,SSE,160,3.0,9.0,82,0.00,,---,0.00,VWS V14.00,2013-06-24 12:56:00,
2013-06-24 08:01:00,77.6,71.3,29.91,South,169,11.0,13.0,81,0.00,,---,0.00,VWS V14.00,2013-06-24 13:01:00,
2013-06-24 08:07:00,77.9,71.2,29.92,South,178,6.0,14.0,80,0.00,,---,0.00,VWS V14.00,2013-06-24 13:07:00,
2013-06-24 08:12:00,78.2,71.5,29.92,SSE,160,7.0,10.0,80,0.00,,---,0.00,VWS V14.00,2013-06-24 13:12:00,
2013-06-24 08:17:00,78.5,71.4,29.92,SSE,168,11.0,13.0,79,0.00,,---,0.00,VWS V14.00,2013-06-24 13:17:00,
2013-06-24 08:22:00,78.7,71.6,29.92,SSE,164,6.0,15.0,79,0.00,,---,0.00,VWS V14.00,2013-06-24 13:22:00,
2013-06-24 08:27:00,79.1,71.7,29.92,SSE,165,10.0,13.0,78,0.00,,---,0.00,VWS V14.00,2013-06-24 13:27:00,
2013-06-24 08:32:00,79.5,72.0,29.92,SSE,163,5.0,5.0,78,0.00,,---,0.00,VWS V14.00,2013-06-24 13:32:00,
2013-06-24 08:37:00,79.9,72.1,29.92,South,170,7.0,7.0,77,0.00,,---,0.00,VWS V14.00,2013-06-24 13:37:00,
2013-06-24 08:42:00,80.3,72.1,29.92,South,190,6.0,9.0,76,0.00,,---,0.00,VWS V14.00,2013-06-24 13:42:00,
2013-06-24 08:47:00,80.5,71.8,29.92,South,180,6.0,7.0,75,0.00,,---,0.00,VWS V14.00,2013-06-24 13:47:00,
2013-06-24 08:52:00,80.6,71.2,29.92,SSW,200,9.0,11.0,73,0.00,,---,0.00,VWS V14.00,2013-06-24 13:52:00,
2013-06-24 08:57:00,80.6,71.2,29.93,South,175,10.0,13.0,73,0.00,,---,0.00,VWS V14.00,2013-06-24 13:57:00,
2013-06-24 09:02:00,80.5,70.7,29.93,South,185,6.0,13.0,72,0.00,,---,0.00,VWS V14.00,2013-06-24 14:02:00,
2013-06-24 09:07:00,80.6,71.2,29.93,South,183,5.0,6.0,73,0.00,,---,0.00,VWS V14.00,2013-06-24 14:07:00,
2013-06-24 09:12:00,81.0,71.1,29.93,South,179,10.0,10.0,72,0.00,,---,0.00,VWS V14.00,2013-06-24 14:12:00,
2013-06-24 09:17:00,81.4,70.7,29.93,South,191,6.0,10.0,70,0.00,,---,0.00,VWS V14.00,2013-06-24 14:17:00,
2013-06-24 09:22:00,81.8,70.2,29.93,South,187,12.0,14.0,68,0.00,,---,0.00,VWS V14.00,2013-06-24 14:22:00,
2013-06-24 09:27:00,82.1,70.5,29.93,SSW,200,14.0,16.0,68,0.00,,---,0.00,VWS V14.00,2013-06-24 14:27:00,
2013-06-24 09:33:00,82.4,69.9,29.93,South,190,10.0,16.0,66,0.00,,---,0.00,VWS V14.00,2013-06-24 14:33:00,
2013-06-24 09:38:00,82.7,70.2,29.92,SSW,211,11.0,17.0,66,0.00,,---,0.00,VWS V14.00,2013-06-24 14:38:00,
2013-06-24 09:43:00,83.0,70.0,29.93,SSW,196,13.0,22.0,65,0.00,,---,0.00,VWS V14.00,2013-06-24 14:43:00,
2013-06-24 09:48:00,83.2,69.8,29.93,South,174,7.0,15.0,64,0.00,,---,0.00,VWS V14.00,2013-06-24 14:48:00,
2013-06-24 09:53:00,83.5,69.6,29.93,South,174,8.0,17.0,63,0.00,,---,0.00,VWS V14.00,2013-06-24 14:53:00,
2013-06-24 09:58:00,83.7,69.8,29.93,SSW,192,18.0,18.0,63,0.00,,---,0.00,VWS V14.00,2013-06-24 14:58:00,
2013-06-24 10:03:00,83.9,70.0,29.93,South,171,10.0,16.0,63,0.00,,---,0.00,VWS V14.00,2013-06-24 15:03:00,
2013-06-24 10:08:00,84.1,69.2,29.93,SW,215,10.0,15.0,61,0.00,,---,0.00,VWS V14.00,2013-06-24 15:08:00,
2013-06-24 10:13:00,84.3,69.4,29.93,South,177,15.0,15.0,61,0.00,,---,0.00,VWS V14.00,2013-06-24 15:13:00,
2013-06-24 10:18:00,84.3,68.4,29.93,SSE,167,12.0,18.0,59,0.00,,---,0.00,VWS V14.00,2013-06-24 15:18:00,
2013-06-24 10:23:00,84.3,68.4,29.93,South,180,15.0,19.0,59,0.00,,---,0.00,VWS V14.00,2013-06-24 15:23:00,
2013-06-24 10:28:00,84.5,69.1,29.93,South,178,16.0,16.0,60,0.00,,---,0.00,VWS V14.00,2013-06-24 15:28:00,
2013-06-24 10:33:00,84.8,69.9,29.93,South,178,10.0,14.0,61,0.00,,---,0.00,VWS V14.00,2013-06-24 15:33:00,
2013-06-24 10:39:00,85.1,69.2,29.93,South,186,11.0,17.0,59,0.00,,---,0.00,VWS V14.00,2013-06-24 15:39:00,
2013-06-24 10:44:00,85.3,69.8,29.93,South,173,12.0,13.0,60,0.00,,---,0.00,VWS V14.00,2013-06-24 15:44:00,
2013-06-24 10:49:00,85.6,69.6,29.93,SSW,193,6.0,16.0,59,0.00,,---,0.00,VWS V14.00,2013-06-24 15:49:00,
2013-06-24 10:54:00,85.7,70.2,29.92,South,190,12.0,15.0,60,0.00,,---,0.00,VWS V14.00,2013-06-24 15:54:00,
2013-06-24 10:59:00,85.9,69.9,29.92,SSW,203,16.0,17.0,59,0.00,,---,0.00,VWS V14.00,2013-06-24 15:59:00,
2013-06-24 11:04:00,86.2,70.2,29.92,SSE,163,10.0,15.0,59,0.00,,---,0.00,VWS V14.00,2013-06-24 16:04:00,
2013-06-24 11:09:00,86.2,68.7,29.92,South,169,20.0,20.0,56,0.00,,---,0.00,VWS V14.00,2013-06-24 16:09:00,
2013-06-24 11:14:00,86.0,69.5,29.92,South,187,12.0,17.0,58,0.00,,---,0.00,VWS V14.00,2013-06-24 16:14:00,
2013-06-24 11:19:00,86.1,69.1,29.92,South,189,13.0,20.0,57,0.00,,---,0.00,VWS V14.00,2013-06-24 16:19:00,
2013-06-24 11:24:00,86.4,69.9,29.92,SSE,167,17.0,19.0,58,0.00,,---,0.00,VWS V14.00,2013-06-24 16:24:00,
2013-06-24 11:29:00,86.6,69.1,29.92,SSE,165,13.0,20.0,56,0.00,,---,0.00,VWS V14.00,2013-06-24 16:29:00,
2013-06-24 11:34:00,86.6,69.6,29.92,SSE,167,15.0,23.0,57,0.00,,---,0.00,VWS V14.00,2013-06-24 16:34:00,
2013-06-24 11:39:00,86.9,69.8,29.92,South,186,7.0,15.0,57,0.00,,---,0.00,VWS V14.00,2013-06-24 16:39:00,
2013-06-24 11:45:00,87.2,69.6,29.92,SE,144,13.0,19.0,56,0.00,,---,0.00,VWS V14.00,2013-06-24 16:45:00,
2013-06-24 11:50:00,87.3,69.7,29.92,SSE,159,9.0,18.0,56,0.00,,---,0.00,VWS V14.00,2013-06-24 16:50:00,
2013-06-24 11:55:00,87.5,69.9,29.92,South,178,16.0,20.0,56,0.00,,---,0.00,VWS V14.00,2013-06-24 16:55:00,
2013-06-24 12:00:00,87.6,68.9,29.92,SSE,153,20.0,23.0,54,0.00,,---,0.00,VWS V14.00,2013-06-24 17:00:00,
2013-06-24 12:05:00,87.5,68.8,29.92,SSE,165,12.0,21.0,54,0.00,,---,0.00,VWS V14.00,2013-06-24 17:05:00,
2013-06-24 12:10:00,87.7,69.5,29.92,South,175,9.0,14.0,55,0.00,,---,0.00,VWS V14.00,2013-06-24 17:10:00,
2013-06-24 12:15:00,88.0,68.2,29.92,South,175,20.0,20.0,52,0.00,,---,0.00,VWS V14.00,2013-06-24 17:15:00,
2013-06-24 12:20:00,88.0,67.6,29.92,South,184,17.0,24.0,51,0.00,,---,0.00,VWS V14.00,2013-06-24 17:20:00,
2013-06-24 12:25:00,88.1,67.7,29.92,South,187,15.0,22.0,51,0.00,,---,0.00,VWS V14.00,2013-06-24 17:25:00,
2013-06-24 12:30:00,88.4,69.1,29.91,SSE,160,11.0,21.0,53,0.00,,---,0.00,VWS V14.00,2013-06-24 17:30:00,
2013-06-24 12:35:00,88.8,69.5,29.91,SSE,167,12.0,17.0,53,0.00,,---,0.00,VWS V14.00,2013-06-24 17:35:00,
2013-06-24 12:40:00,89.1,70.3,29.91,SSE,153,12.0,14.0,54,0.00,,---,0.00,VWS V14.00,2013-06-24 17:40:00,
2013-06-24 12:46:00,89.3,69.4,29.91,SSE,150,15.0,19.0,52,0.00,,---,0.00,VWS V14.00,2013-06-24 17:46:00,
2013-06-24 12:51:00,89.1,67.5,29.90,South,172,19.0,22.0,49,0.00,,---,0.00,VWS V14.00,2013-06-24 17:51:00,
2013-06-24 12:56:00,89.2,68.7,29.90,SSW,192,11.0,18.0,51,0.00,,---,0.00,VWS V14.00,2013-06-24 17:56:00,
2013-06-24 13:04:00,89.5,69.0,29.90,SW,215,11.0,17.0,51,0.00,,---,0.00,VWS V14.00,2013-06-24 18:04:00,
2013-06-24 13:09:00,89.6,69.1,29.90,SSE,150,11.0,19.0,51,0.00,,---,0.00,VWS V14.00,2013-06-24 18:09:00,
2013-06-24 13:15:00,89.8,69.3,29.90,SSE,158,11.0,18.0,51,0.00,,---,0.00,VWS V14.00,2013-06-24 18:15:00,
2013-06-24 13:21:00,90.0,70.0,29.89,SSE,165,7.0,20.0,52,0.00,,---,0.00,VWS V14.00,2013-06-24 18:21:00,
2013-06-24 13:26:00,90.1,67.8,29.89,South,178,9.0,21.0,48,0.00,,---,0.00,VWS V14.00,2013-06-24 18:26:00,
2013-06-24 13:31:00,90.0,67.7,29.89,South,187,11.0,22.0,48,0.00,,---,0.00,VWS V14.00,2013-06-24 18:31:00,
2013-06-24 13:36:00,90.0,68.3,29.89,South,180,16.0,20.0,49,0.00,,---,0.00,VWS V14.00,2013-06-24 18:36:00,
2013-06-24 13:41:00,89.9,68.8,29.89,South,186,12.0,22.0,50,0.00,,---,0.00,VWS V14.00,2013-06-24 18:41:00,
2013-06-24 13:46:00,89.9,68.8,29.89,South,178,16.0,24.0,50,0.00,,---,0.00,VWS V14.00,2013-06-24 18:46:00,
2013-06-24 13:51:00,90.0,69.5,29.89,South,181,13.0,22.0,51,0.00,,---,0.00,VWS V14.00,2013-06-24 18:51:00,
2013-06-24 13:56:00,90.1,69.6,29.88,SSW,196,15.0,20.0,51,0.00,,---,0.00,VWS V14.00,2013-06-24 18:56:00,
2013-06-24 14:01:00,90.5,67.5,29.88,SSW,213,13.0,20.0,47,0.00,,---,0.00,VWS V14.00,2013-06-24 19:01:00,
2013-06-24 14:07:00,90.7,68.3,29.88,SSE,167,11.0,21.0,48,0.00,,---,0.00,VWS V14.00,2013-06-24 19:07:00,
2013-06-24 14:12:00,91.0,70.9,29.88,SE,136,7.0,10.0,52,0.00,,---,0.00,VWS V14.00,2013-06-24 19:12:00,
2013-06-24 14:18:00,91.1,71.6,29.87,SSE,155,9.0,17.0,53,0.00,,---,0.00,VWS V14.00,2013-06-24 19:18:00,
2013-06-24 14:23:00,91.2,70.6,29.87,SSE,168,14.0,16.0,51,0.00,,---,0.00,VWS V14.00,2013-06-24 19:23:00,
2013-06-24 14:28:00,91.0,70.9,29.87,SE,144,17.0,17.0,52,0.00,,---,0.00,VWS V14.00,2013-06-24 19:28:00,
2013-06-24 14:33:00,90.8,69.6,29.87,South,187,12.0,18.0,50,0.00,,---,0.00,VWS V14.00,2013-06-24 19:33:00,
2013-06-24 14:38:00,90.7,69.5,29.87,SSE,151,9.0,14.0,50,0.00,,---,0.00,VWS V14.00,2013-06-24 19:38:00,
2013-06-24 14:43:00,90.7,69.5,29.86,South,190,17.0,24.0,50,0.00,,---,0.00,VWS V14.00,2013-06-24 19:43:00,
2013-06-24 14:48:00,90.6,70.0,29.87,South,180,16.0,20.0,51,0.00,,---,0.00,VWS V14.00,2013-06-24 19:48:00,
2013-06-24 14:53:00,90.7,70.1,29.86,SSW,196,13.0,14.0,51,0.00,,---,0.00,VWS V14.00,2013-06-24 19:53:00,
2013-06-24 14:58:00,91.1,70.5,29.86,South,175,10.0,13.0,51,0.00,,---,0.00,VWS V14.00,2013-06-24 19:58:00,
2013-06-24 15:03:00,91.3,68.9,29.86,South,173,12.0,20.0,48,0.00,,---,0.00,VWS V14.00,2013-06-24 20:03:00,
2013-06-24 15:08:00,91.3,69.5,29.86,SSE,168,15.0,20.0,49,0.00,,---,0.00,VWS V14.00,2013-06-24 20:08:00,
2013-06-24 15:13:00,91.4,70.7,29.86,ESE,121,13.0,15.0,51,0.00,,---,0.00,VWS V14.00,2013-06-24 20:13:00,
2013-06-24 15:18:00,91.5,72.0,29.85,South,172,13.0,19.0,53,0.00,,---,0.00,VWS V14.00,2013-06-24 20:18:00,
2013-06-24 15:24:00,91.5,70.8,29.85,SSE,162,18.0,19.0,51,0.00,,---,0.00,VWS V14.00,2013-06-24 20:24:00,
2013-06-24 15:30:00,91.1,70.5,29.85,SSE,155,15.0,22.0,51,0.00,,---,0.00,VWS V14.00,2013-06-24 20:30:00,
2013-06-24 15:35:00,91.0,69.2,29.85,SSE,156,12.0,23.0,49,0.00,,---,0.00,VWS V14.00,2013-06-24 20:35:00,
2013-06-24 15:40:00,90.8,69.0,29.85,SSE,165,22.0,22.0,49,0.00,,---,0.00,VWS V14.00,2013-06-24 20:40:00,
2013-06-24 15:45:00,90.7,69.5,29.85,SSE,156,15.0,23.0,50,0.00,,---,0.00,VWS V14.00,2013-06-24 20:45:00,
2013-06-24 15:50:00,91.0,69.8,29.85,South,177,10.0,17.0,50,0.00,,---,0.00,VWS V14.00,2013-06-24 20:50:00,
2013-06-24 15:55:00,91.1,70.5,29.85,South,178,11.0,17.0,51,0.00,,---,0.00,VWS V14.00,2013-06-24 20:55:00,
2013-06-24 16:00:00,90.8,69.0,29.85,South,178,17.0,21.0,49,0.00,,---,0.00,VWS V14.00,2013-06-24 21:00:00,
2013-06-24 16:05:00,90.5,69.3,29.85,SSE,158,16.0,18.0,50,0.00,,---,0.00,VWS V14.00,2013-06-24 21:05:00,
2013-06-24 16:10:00,90.6,68.8,29.84,SSE,167,15.0,21.0,49,0.00,,---,0.00,VWS V14.00,2013-06-24 21:10:00,
2013-06-24 16:15:00,90.6,70.0,29.84,South,180,15.0,18.0,51,0.00,,---,0.00,VWS V14.00,2013-06-24 21:15:00,
2013-06-24 16:20:00,90.7,70.7,29.84,South,171,14.0,20.0,52,0.00,,---,0.00,VWS V14.00,2013-06-24 21:20:00,
2013-06-24 16:25:00,90.7,70.7,29.84,SSE,151,14.0,20.0,52,0.00,,---,0.00,VWS V14.00,2013-06-24 21:25:00,
2013-06-24 16:30:00,90.5,71.1,29.84,ESE,123,10.0,15.0,53,0.00,,---,0.00,VWS V14.00,2013-06-24 21:30:00,
2013-06-24 16:35:00,90.6,72.2,29.83,SSE,157,12.0,15.0,55,0.00,,---,0.00,VWS V14.00,2013-06-24 21:35:00,
2013-06-24 16:41:00,90.4,71.5,29.83,South,169,19.0,19.0,54,0.00,,---,0.00,VWS V14.00,2013-06-24 21:41:00,
2013-06-24 16:46:00,90.1,71.8,29.83,SE,145,11.0,19.0,55,0.00,,---,0.00,VWS V14.00,2013-06-24 21:46:00,
2013-06-24 16:51:00,90.0,72.2,29.83,South,182,15.0,15.0,56,0.00,,---,0.00,VWS V14.00,2013-06-24 21:51:00,
2013-06-24 16:55:00,90.1,72.3,29.83,South,172,12.0,19.0,56,0.00,,---,0.00,VWS V14.00,2013-06-24 21:55:00,
2013-06-24 17:00:00,89.9,72.1,29.83,SSE,163,16.0,21.0,56,0.00,,---,0.00,VWS V14.00,2013-06-24 22:00:00,
2013-06-24 17:06:00,89.7,71.4,29.83,South,169,12.0,19.0,55,0.00,,---,0.00,VWS V14.00,2013-06-24 22:06:00,
2013-06-24 17:11:00,89.7,71.9,29.83,SSE,165,13.0,15.0,56,0.00,,---,0.00,VWS V14.00,2013-06-24 22:11:00,
2013-06-24 17:16:00,89.8,71.5,29.83,SSE,161,10.0,21.0,55,0.00,,---,0.00,VWS V14.00,2013-06-24 22:16:00,
2013-06-24 17:21:00,89.7,71.4,29.83,SSE,155,8.0,21.0,55,0.00,,---,0.00,VWS V14.00,2013-06-24 22:21:00,
2013-06-24 17:26:00,89.6,71.3,29.83,SE,143,12.0,22.0,55,0.00,,---,0.00,VWS V14.00,2013-06-24 22:26:00,
2013-06-24 17:31:00,89.5,71.2,29.83,SE,136,13.0,19.0,55,0.00,,---,0.00,VWS V14.00,2013-06-24 22:31:00,
2013-06-24 17:36:00,89.4,71.7,29.83,SSE,156,6.0,17.0,56,0.00,,---,0.00,VWS V14.00,2013-06-24 22:36:00,
2013-06-24 17:41:00,89.4,72.2,29.83,South,170,7.0,16.0,57,0.00,,---,0.00,VWS V14.00,2013-06-24 22:41:00,
2013-06-24 17:46:00,89.5,72.3,29.83,SSE,158,11.0,17.0,57,0.00,,---,0.00,VWS V14.00,2013-06-24 22:46:00,
2013-06-24 17:51:00,89.3,72.1,29.83,SE,133,14.0,18.0,57,0.00,,---,0.00,VWS V14.00,2013-06-24 22:51:00,
2013-06-24 17:56:00,89.2,72.5,29.82,SSE,167,8.0,15.0,58,0.00,,---,0.00,VWS V14.00,2013-06-24 22:56:00,
2013-06-24 18:01:00,88.8,71.6,29.82,SSW,192,14.0,17.0,57,0.00,,---,0.00,VWS V14.00,2013-06-24 23:01:00,
2013-06-24 18:06:00,88.5,71.3,29.82,SSE,167,11.0,17.0,57,0.00,,---,0.00,VWS V14.00,2013-06-24 23:06:00,
2013-06-24 18:11:00,88.3,71.2,29.82,SSE,162,12.0,18.0,57,0.00,,---,0.00,VWS V14.00,2013-06-24 23:11:00,
2013-06-24 18:17:00,88.1,71.5,29.82,SSE,149,11.0,11.0,58,0.00,,---,0.00,VWS V14.00,2013-06-24 23:17:00,
2013-06-24 18:22:00,88.1,71.5,29.82,SSE,158,9.0,12.0,58,0.00,,---,0.00,VWS V14.00,2013-06-24 23:22:00,
2013-06-24 18:27:00,88.0,71.4,29.82,SSE,162,11.0,14.0,58,0.00,,---,0.00,VWS V14.00,2013-06-24 23:27:00,
2013-06-24 18:32:00,87.9,71.3,29.82,SSE,154,5.0,10.0,58,0.00,,---,0.00,VWS V14.00,2013-06-24 23:32:00,
2013-06-24 18:37:00,88.0,70.9,29.82,SSE,160,9.0,19.0,57,0.00,,---,0.00,VWS V14.00,2013-06-24 23:37:00,
2013-06-24 18:43:00,88.1,72.0,29.82,SE,133,11.0,14.0,59,0.00,,---,0.00,VWS V14.00,2013-06-24 23:43:00,
2013-06-24 18:48:00,88.2,72.1,29.82,SSE,159,9.0,13.0,59,0.00,,---,0.00,VWS V14.00,2013-06-24 23:48:00,
2013-06-24 18:53:00,88.2,72.1,29.83,SE,146,7.0,11.0,59,0.00,,---,0.00,VWS V14.00,2013-06-24 23:53:00,
2013-06-24 18:58:00,88.1,72.5,29.82,SSE,165,11.0,17.0,60,0.00,,---,0.00,VWS V14.00,2013-06-24 23:58:00,
2013-06-24 19:03:00,87.9,72.3,29.82,South,171,7.0,12.0,60,0.00,,---,0.00,VWS V14.00,2013-06-25 00:03:00,
2013-06-24 19:08:00,87.7,71.6,29.82,SSE,161,8.0,10.0,59,0.00,,---,0.00,VWS V14.00,2013-06-25 00:08:00,
2013-06-24 19:13:00,87.5,72.4,29.82,SSE,164,6.0,12.0,61,0.00,,---,0.00,VWS V14.00,2013-06-25 00:13:00,
2013-06-24 19:18:00,87.3,71.7,29.82,South,173,15.0,15.0,60,0.00,,---,0.00,VWS V14.00,2013-06-25 00:18:00,
2013-06-24 19:25:00,87.1,72.0,29.82,SSE,147,6.0,12.0,61,0.00,,---,0.00,VWS V14.00,2013-06-25 00:25:00,
2013-06-24 19:30:00,86.8,71.8,29.82,SSE,165,7.0,14.0,61,0.00,,---,0.00,VWS V14.00,2013-06-25 00:30:00,
2013-06-24 19:37:00,86.5,71.5,29.82,SSE,165,6.0,22.0,61,0.00,,---,0.00,VWS V14.00,2013-06-25 00:37:00,
2013-06-24 19:42:00,86.2,71.7,29.82,South,171,7.0,17.0,62,0.00,,---,0.00,VWS V14.00,2013-06-25 00:42:00,
2013-06-24 19:47:00,85.8,71.3,29.82,SSE,155,8.0,14.0,62,0.00,,---,0.00,VWS V14.00,2013-06-25 00:47:00,
2013-06-24 19:52:00,85.4,71.4,29.82,SSE,153,4.0,12.0,63,0.00,,---,0.00,VWS V14.00,2013-06-25 00:52:00,
2013-06-24 19:57:00,85.0,71.0,29.82,SSE,162,9.0,12.0,63,0.00,,---,0.00,VWS V14.00,2013-06-25 00:57:00,
2013-06-24 20:02:00,84.7,71.2,29.82,SSE,155,5.0,11.0,64,0.00,,---,0.00,VWS V14.00,2013-06-25 01:02:00,
2013-06-24 20:07:00,84.3,71.3,29.81,SE,128,8.0,14.0,65,0.00,,---,0.00,VWS V14.00,2013-06-25 01:07:00,
2013-06-24 20:13:00,84.0,71.0,29.82,SE,137,4.0,10.0,65,0.00,,---,0.00,VWS V14.00,2013-06-25 01:13:00,
2013-06-24 20:18:00,83.8,71.2,29.81,SE,136,7.0,13.0,66,0.00,,---,0.00,VWS V14.00,2013-06-25 01:18:00,
2013-06-24 20:23:00,83.6,71.1,29.81,SE,139,13.0,13.0,66,0.00,,---,0.00,VWS V14.00,2013-06-25 01:23:00,
2013-06-24 20:28:00,83.4,70.9,29.81,South,173,5.0,11.0,66,0.00,,---,0.00,VWS V14.00,2013-06-25 01:28:00,
2013-06-24 20:33:00,83.2,71.1,29.81,SE,138,6.0,10.0,67,0.00,,---,0.00,VWS V14.00,2013-06-25 01:33:00,
2013-06-24 20:39:00,83.0,70.9,29.81,SE,132,5.0,10.0,67,0.00,,---,0.00,VWS V14.00,2013-06-25 01:39:00,
2013-06-24 20:44:00,82.8,70.7,29.82,SE,131,6.0,11.0,67,0.00,,---,0.00,VWS V14.00,2013-06-25 01:44:00,
2013-06-24 20:49:00,82.6,70.5,29.82,SE,146,9.0,14.0,67,0.00,,---,0.00,VWS V14.00,2013-06-25 01:49:00,
2013-06-24 20:54:00,82.6,70.5,29.81,SE,144,6.0,11.0,67,0.00,,---,0.00,VWS V14.00,2013-06-25 01:54:00,
2013-06-24 20:59:00,82.5,70.9,29.82,SE,140,5.0,10.0,68,0.00,,---,0.00,VWS V14.00,2013-06-25 01:59:00,
2013-06-24 21:04:00,82.3,70.7,29.82,SE,140,6.0,9.0,68,0.00,,---,0.00,VWS V14.00,2013-06-25 02:04:00,
2013-06-24 21:09:00,82.2,70.6,29.82,SE,142,7.0,11.0,68,0.00,,---,0.00,VWS V14.00,2013-06-25 02:09:00,
2013-06-24 21:16:00,82.1,70.5,29.82,SE,134,6.0,10.0,68,0.00,,---,0.00,VWS V14.00,2013-06-25 02:16:00,
2013-06-24 21:21:00,82.0,70.4,29.82,SE,126,6.0,13.0,68,0.00,,---,0.00,VWS V14.00,2013-06-25 02:21:00,
2013-06-24 21:26:00,81.8,70.2,29.82,SE,145,5.0,11.0,68,0.00,,---,0.00,VWS V14.00,2013-06-25 02:26:00,
2013-06-24 21:31:00,81.7,70.6,29.82,SE,135,8.0,13.0,69,0.00,,---,0.00,VWS V14.00,2013-06-25 02:31:00,
2013-06-24 21:36:00,81.7,70.6,29.82,SE,130,10.0,13.0,69,0.00,,---,0.00,VWS V14.00,2013-06-25 02:36:00,
2013-06-24 21:41:00,81.6,70.4,29.82,SE,141,5.0,15.0,69,0.00,,---,0.00,VWS V14.00,2013-06-25 02:41:00,
2013-06-24 21:46:00,81.6,70.4,29.83,SE,144,9.0,13.0,69,0.00,,---,0.00,VWS V14.00,2013-06-25 02:46:00,
2013-06-24 21:51:00,81.5,70.4,29.83,SE,136,10.0,17.0,69,0.00,,---,0.00,VWS V14.00,2013-06-25 02:51:00,
2013-06-24 21:56:00,81.5,70.4,29.83,SE,138,7.0,14.0,69,0.00,,---,0.00,VWS V14.00,2013-06-25 02:56:00,
2013-06-24 22:01:00,81.4,70.3,29.84,SSE,148,6.0,11.0,69,0.00,,---,0.00,VWS V14.00,2013-06-25 03:01:00,
2013-06-24 22:07:00,81.3,70.6,29.84,SE,134,13.0,13.0,70,0.00,,---,0.00,VWS V14.00,2013-06-25 03:07:00,
2013-06-24 22:12:00,81.2,70.5,29.84,SE,142,6.0,13.0,70,0.00,,---,0.00,VWS V14.00,2013-06-25 03:12:00,
2013-06-24 22:17:00,81.1,70.4,29.84,SE,131,12.0,14.0,70,0.00,,---,0.00,VWS V14.00,2013-06-25 03:17:00,
2013-06-24 22:23:00,81.0,70.7,29.85,SE,140,9.0,12.0,71,0.00,,---,0.00,VWS V14.00,2013-06-25 03:23:00,
2013-06-24 22:28:00,80.9,70.6,29.85,SE,135,9.0,11.0,71,0.00,,---,0.00,VWS V14.00,2013-06-25 03:28:00,
2013-06-24 22:33:00,80.8,70.5,29.85,SE,130,10.0,13.0,71,0.00,,---,0.00,VWS V14.00,2013-06-25 03:33:00,
2013-06-24 22:38:00,80.7,70.4,29.85,SE,137,5.0,9.0,71,0.00,,---,0.00,VWS V14.00,2013-06-25 03:38:00,
2013-06-24 22:44:00,80.6,70.8,29.86,SE,130,4.0,11.0,72,0.00,,---,0.00,VWS V14.00,2013-06-25 03:44:00,
2013-06-24 22:49:00,80.5,70.7,29.86,SE,142,6.0,10.0,72,0.00,,---,0.00,VWS V14.00,2013-06-25 03:49:00,
2013-06-24 22:54:00,80.4,70.6,29.86,SE,135,11.0,11.0,72,0.00,,---,0.00,VWS V14.00,2013-06-25 03:54:00,
2013-06-24 22:59:00,80.3,70.5,29.85,SE,137,10.0,11.0,72,0.00,,---,0.00,VWS V14.00,2013-06-25 03:59:00,
2013-06-24 23:01:00,80.3,70.5,29.86,SE,135,6.0,11.0,72,0.00,,---,0.00,VWS V14.00,2013-06-25 04:01:00,
2013-06-24 23:06:00,80.2,70.4,29.86,SE,144,6.0,12.0,72,0.00,,---,0.00,VWS V14.00,2013-06-25 04:06:00,
2013-06-24 23:11:00,80.0,70.2,29.85,SE,142,7.0,12.0,72,0.00,,---,0.00,VWS V14.00,2013-06-25 04:11:00,
2013-06-24 23:16:00,80.0,70.6,29.85,SE,138,6.0,13.0,73,0.00,,---,0.00,VWS V14.00,2013-06-25 04:16:00,
2013-06-24 23:21:00,79.8,70.4,29.85,SE,138,9.0,13.0,73,0.00,,---,0.00,VWS V14.00,2013-06-25 04:21:00,
2013-06-24 23:26:00,79.8,70.4,29.85,SE,143,7.0,16.0,73,0.00,,---,0.00,VWS V14.00,2013-06-25 04:26:00,
2013-06-24 23:31:00,79.7,70.3,29.85,SE,140,7.0,12.0,73,0.00,,---,0.00,VWS V14.00,2013-06-25 04:31:00,
2013-06-24 23:36:00,79.6,70.2,29.85,SE,142,10.0,12.0,73,0.00,,---,0.00,VWS V14.00,2013-06-25 04:36:00,
2013-06-24 23:41:00,79.6,70.2,29.85,SSE,147,9.0,14.0,73,0.00,,---,0.00,VWS V14.00,2013-06-25 04:41:00,
2013-06-24 23:46:00,79.6,70.2,29.85,SE,143,9.0,9.0,73,0.00,,---,0.00,VWS V14.00,2013-06-25 04:46:00,
2013-06-24 23:51:00,79.5,70.1,29.85,SSE,148,7.0,13.0,73,0.00,,---,0.00,VWS V14.00,2013-06-25 04:51:00,
2013-06-24 23:56:00,79.4,70.0,29.85,SE,138,6.0,11.0,73,0.00,,---,0.00,VWS V14.00,2013-06-25 04:56:00,